Location: Владивосток
(43.1151°N, 131.8856°E)
Time: 10:41:34
(UTC+10:00)

NANOSAT C BR1 - Visible Passes

Search period start: 19 April 2024 00:00
Search period end: 29 April 2024 00:00
Orbit: 556 x 567 km, 98.1° (Epoch: 18 April)

Date Brightness Start Highest point End Pass type
(mag) Time Alt. Az. Time Alt. Az. Time Alt. Az.
19 Apr ? 04:21:42 10° NE 04:25:07 26° E 04:28:32 10° SSE visible
20 Apr ? 04:20:59 10° NE 04:24:23 26° E 04:27:45 10° SSE visible
21 Apr ? 04:20:15 10° NE 04:23:37 25° E 04:26:58 10° SSE visible
22 Apr ? 04:19:28 10° NE 04:22:49 24° E 04:26:07 10° SSE visible
23 Apr ? 04:18:41 10° NE 04:21:58 24° E 04:25:14 10° SSE visible
24 Apr ? 04:17:50 10° NE 04:21:06 23° E 04:24:20 10° SSE visible
25 Apr ? 04:16:57 10° NE 04:20:11 23° E 04:23:23 10° SSE visible
26 Apr ? 04:16:03 10° NE 04:19:14 22° E 04:22:23 10° SSE visible
27 Apr ? 04:15:07 10° NE 04:18:14 21° E 04:21:21 10° SE visible
28 Apr ? 04:14:09 10° NE 04:17:13 21° E 04:20:17 10° SE visible
